This is the latest recevied weather packets stored in our database for station/object HK6RM-18. If no packets are shown the sender has not sent any weather packets the latest 1 day(s).
| Time | Temp. | Humidity | Pressure | Rain* | Wind** | Luminosity | Snow |
|---|---|---|---|---|---|---|---|
| 1778089306 | 22.78° C | 76% | 1012 hPa | 0 mm | - | - | - |
| 1778088406 | 23.33° C | 76% | 1013 hPa | 0 mm | - | - | - |
| 1778086605 | 23.33° C | 77% | 1013 hPa | 0 mm | - | - | - |
| 1778084804 | 23.33° C | 76% | 1014 hPa | 0 mm | - | - | - |
| 1778082101 | 22.78° C | 73% | 1014 hPa | 0 mm | - | - | - |
| 1778078493 | 23.33° C | 76% | 1016 hPa | 0 mm | - | - | - |
| 1778075787 | 21.11° C | 82% | 1016 hPa | 0 mm | - | - | - |
| 1778073984 | 19.44° C | 82% | 1017 hPa | 0 mm | - | - | - |
| 1778073084 | 20° C | 82% | 1017 hPa | 0 mm | - | - | - |
| 1778071282 | 21.11° C | 82% | 1017 hPa | 0 mm | - | - | - |
| 1778069481 | 17.22° C | 93% | 1017 hPa | 0 mm | - | - | - |
| 1778068579 | 17.78° C | 93% | 1017 hPa | 0 mm | - | - | - |
| 1778065876 | 15° C | 92% | 1016 hPa | 0 mm | - | - | - |
| 1778064075 | 16.67° C | 92% | 1016 hPa | 0 mm | - | - | - |
| 1778063172 | 17.78° C | 92% | 1016 hPa | 0 mm | - | - | - |
| 1778061371 | 13.89° C | 91% | 1015 hPa | 0 mm | - | - | - |
| 1778060470 | 14.44° C | 91% | 1015 hPa | 0 mm | - | - | - |
| 1778059569 | 15° C | 91% | 1015 hPa | 0 mm | - | - | - |
| 1778058667 | 15.56° C | 91% | 1015 hPa | 0 mm | - | - | - |
| 1778057765 | 16.11° C | 91% | 1015 hPa | 0 mm | - | - | - |
| 1778056865 | 16.67° C | 91% | 1015 hPa | 0 mm | - | - | - |
| 1778055063 | 17.78° C | 90% | 1015 hPa | 0 mm | - | - | - |
| 1778054163 | 18.33° C | 90% | 1015 hPa | 0 mm | - | - | - |
| 1778052361 | 18.89° C | 91% | 1015 hPa | 0 mm | - | - | - |
| 1778049657 | 13.89° C | 87% | 1015 hPa | 0 mm | - | - | - |
* Rain latest hour (hover to see other rain measurements)
** Current wind speed in m/s (hover to see current wind gust speed)